• In Uzbekistan
  • List of Countries
  • For 7 days
  • Water Temperature
  • Satellite Maps
  • Weather Map
  • Weather Widgets
  • user-avatar
    Login

    Hourly Weather Andora

    Today, 24 September, Sunday

    Time Temperature Precipitation Wind Pressure Humidity
    00:00 +8°C° 0 mm 1 mps 627 mmHg 67%
    01:00 +8°C° 0 mm 1 mps 627 mmHg 64%
    02:00 +8°C° 0 mm 1 mps 627 mmHg 62%
    03:00 +8°C° 0 mm 1 mps 627 mmHg 59%
    04:00 +8°C° 0 mm 1 mps 627 mmHg 58%
    05:00 +7°C° 0 mm 2 mps 627 mmHg 56%
    06:00 +7°C° 0 mm 2 mps 627 mmHg 54%
    07:00 +11°C° 0 mm 1 mps 628 mmHg 48%
    08:00 +14°C° 0 mm 1 mps 629 mmHg 42%
    09:00 +16°C° 0 mm 0 mps 631 mmHg 35%
    10:00 +19°C° 0 mm 1 mps 631 mmHg 34%
    11:00 +20°C° 0 mm 1 mps 631 mmHg 32%
    12:00 +21°C° 0 mm 1 mps 631 mmHg 30%
    13:00 +21°C° 0 mm 1 mps 631 mmHg 31%
    14:00 +21°C° 0 mm 1 mps 631 mmHg 32%
    15:00 +20°C° 0 mm 2 mps 630 mmHg 33%
    16:00 +18°C° 0 mm 1 mps 629 mmHg 42%
    17:00 +15°C° 0 mm 1 mps 628 mmHg 51%
    18:00 +12°C° 0 mm 1 mps 627 mmHg 60%
    19:00 +12°C° 0 mm 1 mps 627 mmHg 61%
    20:00 +11°C° 0 mm 1 mps 627 mmHg 63%
    21:00 +11°C° 0 mm 1 mps 627 mmHg 64%
    22:00 +11°C° 0 mm 1 mps 627 mmHg 64%
    23:00 +10°C° 0 mm 1 mps 627 mmHg 63%

    Tomorrow, 25 September, Monday

    Time Temperature Precipitation Wind Pressure Humidity
    00:00 +10°C° 0 mm 1 mps 627 mmHg 63%
    01:00 +10°C° 0 mm 1 mps 627 mmHg 64%
    02:00 +10°C° 0 mm 1 mps 627 mmHg 65%
    03:00 +10°C° 0 mm 1 mps 626 mmHg 65%
    04:00 +10°C° 0 mm 1 mps 626 mmHg 66%
    05:00 +10°C° 0 mm 1 mps 627 mmHg 66%
    06:00 +10°C° 0 mm 1 mps 627 mmHg 66%
    07:00 +12°C° 0 mm 1 mps 628 mmHg 62%
    08:00 +14°C° 0 mm 1 mps 629 mmHg 57%
    09:00 +15°C° 0 mm 1 mps 630 mmHg 53%
    10:00 +16°C° 0.1 mm 2 mps 630 mmHg 52%
    11:00 +17°C° 0.1 mm 2 mps 630 mmHg 50%
    12:00 +18°C° 0.1 mm 2 mps 630 mmHg 49%
    13:00 +17°C° 0.3 mm 2 mps 629 mmHg 53%
    14:00 +16°C° 0.3 mm 2 mps 629 mmHg 58%
    15:00 +15°C° 0.3 mm 2 mps 629 mmHg 63%
    16:00 +14°C° 0.4 mm 2 mps 628 mmHg 70%
    17:00 +13°C° 0.4 mm 2 mps 628 mmHg 77%
    18:00 +10°C° 0.4 mm 2 mps 628 mmHg 84%
    19:00 +10°C° 0.2 mm 2 mps 628 mmHg 87%
    20:00 +9°C° 0.2 mm 2 mps 628 mmHg 89%
    21:00 +9°C° 0.2 mm 2 mps 628 mmHg 92%
    22:00 +10°C° 0.1 mm 1 mps 628 mmHg 93%
    23:00 +9°C° 0.1 mm 1 mps 628 mmHg 93%

    Day after tomorrow, 26 September, Tuesday

    Time Temperature Precipitation Wind Pressure Humidity
    00:00 +9°C° 0.1 mm 1 mps 628 mmHg 94%
    01:00 +9°C° 0.1 mm 1 mps 628 mmHg 94%
    02:00 +8°C° 0.1 mm 0 mps 627 mmHg 95%
    03:00 +7°C° 0.1 mm 0 mps 627 mmHg 96%
    04:00 +7°C° 0 mm 0 mps 627 mmHg 96%
    05:00 +7°C° 0 mm 0 mps 627 mmHg 96%
    06:00 +8°C° 0 mm 1 mps 627 mmHg 96%
    07:00 +8°C° 0 mm 0 mps 628 mmHg 90%
    08:00 +9°C° 0 mm 0 mps 629 mmHg 84%
    09:00 +11°C° 0 mm 0 mps 629 mmHg 78%
    10:00 +13°C° 0.1 mm 1 mps 629 mmHg 73%
    11:00 +13°C° 0.1 mm 1 mps 630 mmHg 69%
    12:00 +14°C° 0.1 mm 1 mps 630 mmHg 65%
    13:00 +14°C° 0.1 mm 1 mps 629 mmHg 66%
    14:00 +14°C° 0.1 mm 1 mps 629 mmHg 67%
    15:00 +13°C° 0.1 mm 1 mps 629 mmHg 68%
    16:00 +12°C° 0.1 mm 1 mps 629 mmHg 73%
    17:00 +11°C° 0.1 mm 1 mps 628 mmHg 77%
    18:00 +9°C° 0.1 mm 0 mps 628 mmHg 81%
    19:00 +9°C° 0 mm 0 mps 628 mmHg 83%
    20:00 +9°C° 0 mm 1 mps 628 mmHg 86%
    21:00 +8°C° 0 mm 1 mps 628 mmHg 88%
    22:00 +8°C° 0 mm 1 mps 628 mmHg 89%
    23:00 +8°C° 0 mm 1 mps 628 mmHg 89%

    27 September, Wednesday

    Time Temperature Precipitation Wind Pressure Humidity
    00:00 +8°C° 0 mm 1 mps 628 mmHg 90%
    01:00 +8°C° 0 mm 1 mps 627 mmHg 90%
    02:00 +7°C° 0 mm 1 mps 627 mmHg 90%
    03:00 +7°C° 0 mm 1 mps 627 mmHg 90%
    04:00 +7°C° 0 mm 1 mps 627 mmHg 89%
    05:00 +7°C° 0 mm 1 mps 627 mmHg 88%
    06:00 +7°C° 0 mm 1 mps 628 mmHg 87%
    07:00 +10°C° 0 mm 1 mps 629 mmHg 78%
    08:00 +12°C° 0 mm 1 mps 630 mmHg 69%
    09:00 +14°C° 0 mm 1 mps 631 mmHg 60%
    10:00 +16°C° 0 mm 1 mps 631 mmHg 54%
    11:00 +18°C° 0 mm 1 mps 632 mmHg 48%
    12:00 +19°C° 0 mm 1 mps 632 mmHg 42%
    13:00 +19°C° 0 mm 1 mps 632 mmHg 42%
    14:00 +19°C° 0 mm 1 mps 632 mmHg 43%
    15:00 +18°C° 0 mm 2 mps 632 mmHg 44%
    16:00 +16°C° 0 mm 1 mps 631 mmHg 52%
    17:00 +13°C° 0 mm 1 mps 631 mmHg 61%
    18:00 +11°C° 0 mm 1 mps 630 mmHg 70%
    19:00 +11°C° 0 mm 1 mps 630 mmHg 71%
    20:00 +10°C° 0 mm 1 mps 630 mmHg 71%
    21:00 +10°C° 0 mm 1 mps 630 mmHg 72%
    22:00 +10°C° 0 mm 1 mps 630 mmHg 69%
    23:00 +9°C° 0 mm 1 mps 630 mmHg 66%

    28 September, Thursday

    Time Temperature Precipitation Wind Pressure Humidity
    00:00 +9°C° 0 mm 1 mps 630 mmHg 63%
    01:00 +9°C° 0 mm 1 mps 630 mmHg 61%
    02:00 +9°C° 0 mm 1 mps 630 mmHg 58%
    03:00 +9°C° 0 mm 1 mps 630 mmHg 56%
    04:00 +9°C° 0 mm 1 mps 630 mmHg 54%
    05:00 +9°C° 0 mm 1 mps 631 mmHg 53%
    06:00 +9°C° 0 mm 1 mps 631 mmHg 51%
    07:00 +11°C° 0 mm 1 mps 632 mmHg 49%
    08:00 +14°C° 0 mm 1 mps 633 mmHg 47%
    09:00 +15°C° 0 mm 0 mps 634 mmHg 44%
    10:00 +18°C° 0 mm 1 mps 634 mmHg 43%
    11:00 +19°C° 0 mm 1 mps 634 mmHg 43%
    12:00 +20°C° 0 mm 1 mps 635 mmHg 42%
    13:00 +20°C° 0 mm 1 mps 634 mmHg 43%
    14:00 +20°C° 0 mm 1 mps 634 mmHg 44%
    15:00 +20°C° 0 mm 1 mps 633 mmHg 46%
    16:00 +18°C° 0 mm 1 mps 633 mmHg 55%
    17:00 +15°C° 0 mm 1 mps 632 mmHg 64%
    18:00 +11°C° 0 mm 0 mps 631 mmHg 73%
    19:00 +11°C° 0 mm 0 mps 631 mmHg 75%
    20:00 +10°C° 0 mm 0 mps 631 mmHg 78%
    21:00 +11°C° 0 mm 1 mps 631 mmHg 80%
    22:00 +11°C° 0 mm 1 mps 631 mmHg 80%
    23:00 +10°C° 0 mm 1 mps 631 mmHg 81%

    29 September, Friday

    Time Temperature Precipitation Wind Pressure Humidity
    00:00 +10°C° 0 mm 1 mps 630 mmHg 81%
    01:00 +10°C° 0 mm 1 mps 630 mmHg 80%
    02:00 +10°C° 0 mm 1 mps 630 mmHg 80%
    03:00 +10°C° 0 mm 1 mps 630 mmHg 80%
    04:00 +10°C° 0 mm 1 mps 630 mmHg 79%
    05:00 +10°C° 0 mm 1 mps 630 mmHg 79%
    06:00 +10°C° 0 mm 1 mps 630 mmHg 79%
    07:00 +12°C° 0 mm 1 mps 631 mmHg 70%
    08:00 +15°C° 0 mm 1 mps 632 mmHg 61%
    09:00 +19°C° 0 mm 1 mps 633 mmHg 52%
    10:00 +19°C° 0 mm 1 mps 633 mmHg 50%
    11:00 +20°C° 0 mm 1 mps 633 mmHg 48%
    12:00 +21°C° 0 mm 1 mps 633 mmHg 46%
    13:00 +20°C° 0.3 mm 1 mps 633 mmHg 48%
    14:00 +20°C° 0.3 mm 1 mps 632 mmHg 50%
    15:00 +20°C° 0.3 mm 1 mps 632 mmHg 52%
    16:00 +18°C° 0.3 mm 1 mps 631 mmHg 60%
    17:00 +15°C° 0.3 mm 1 mps 631 mmHg 67%
    18:00 +13°C° 0.3 mm 1 mps 630 mmHg 74%
    19:00 +13°C° 0.1 mm 1 mps 630 mmHg 76%
    20:00 +12°C° 0.1 mm 1 mps 630 mmHg 78%
    21:00 +12°C° 0.1 mm 1 mps 630 mmHg 79%
    22:00 +12°C° 0 mm 1 mps 630 mmHg 79%
    23:00 +11°C° 0 mm 1 mps 630 mmHg 80%
    Show more